星链-5942 (STARLINK-5942 )

导读

STARLINK-5942是美国太空探索技术公司(SpaceX)星链(Starlink)互联网星座中的一颗卫星,于2023年3月24日发射升空,属于星链项目批量部署的卫星之一。该卫星旨在为全球提供低延迟、高速率的卫星互联网服务,尤其覆盖地面网络难以抵达的偏远区域,助力全球互联网接入的普及。

Basic Information
目录编号:
56014
目录名称:
STARLINK-5942
国际标识:
2023-042AE
轨道中心:
EARTH
卫星名称:
星链-5942
卫星全名:
星链-5942 (STARLINK-5942 )
卫星状态:
在轨 (已飞行1268 天)
发射日期:
2023-03-24 UTC
国别 :
美国 (US)
星等 :
--
This satellite is enrolled in the Space Conjunction Data Service (SCDS) and the current flight risk assessment level is: High Risk
Orbit Information
数据来源 国际轨道数据
星历时间: 2026-09-12T03:51:00+0800
19小时前
查看轨道信息
半长轴: 6861.208km
偏心率: 0.0001545
轨道倾角: 43.004°
近地点辐角 264.148°
升交点赤经 73.955°
平近点角 95.920°
近地点: 482.01km
远地点: 484.132km
周期: 94.267分钟
每日圈数: 15.27573
Detailed Information
固有亮度:
5
最大亮度:
2.5
卫星平台:
Starlink v1.5
覆盖范围:
全球
运营商:
太空探索技术公司
运营商所在国:
美国
制造商(研发单位):
太空探索技术公司
制造商所在国:
美国
使用方式:
暂无
Satellite Introduction
星链(Starlink)计划是由太空探索技术公司(SpaceX)提出的一个巨型低轨卫星互联网星座项目,计划在2019年至2024年间在太空搭建由约1.2万颗卫星组成的“星链”网络,其中1584颗将部署在地球上空550千米处的近地轨道,并从2020年开始工作。该卫星仍在工作。
2D Orbit Map
3D Orbit Map
Orbit Altitude Analysis Chart
Orbit Inclination Analysis Chart
Orbit Comprehensive Analysis Chart
View Comprehensive Chart
Conjunction Data List
Event ID Objects TCA Miss Dist (km) Collision Risk Probability Collision Risk Index (CRI) Action
CDM_260914-123605-601406-507121
2026-09-14T
12:36:15+0000
1.574 km
极远距离
4.774456E-6 低风险 0.49
CDM_260905-235202-953805-601422
2026-09-05T
23:52:47+0000
2.228 km
极远距离
1.747161E-6 低风险 0.4
Miss Distance Evolution Trend with All Objects
Collision Probability Evolution Trend with All Objects